Time,TemperatureF,DewpointF,PressureIn,WindDirection,WindDirectionDegrees,WindSpeedMPH,WindSpeedGustMPH,Humidity,HourlyPrecipIn,Conditions,Clouds,dailyrainin,SoftwareType,DateUTC
2013-10-22 00:02:00,38.0,29.1,30.01,West,263,5.0,7.0,70,0.00,,,0.00,Wunderground v.1.15,2013-10-22 04:02:00,
2013-10-22 00:03:00,38.0,29.1,30.01,SW,236,5.0,7.0,70,0.00,,,0.00,Wunderground v.1.15,2013-10-22 04:03:00,
2013-10-22 00:04:00,37.9,29.0,30.01,NW,304,5.0,7.0,70,0.00,,,0.00,Wunderground v.1.15,2013-10-22 04:04:00,
2013-10-22 00:07:00,37.9,28.6,30.01,SW,235,5.0,7.0,69,0.00,,,0.00,Wunderground v.1.15,2013-10-22 04:07:00,
2013-10-22 00:08:00,37.9,28.6,30.01,WNW,293,5.0,7.0,69,0.00,,,0.00,Wunderground v.1.15,2013-10-22 04:08:00,
2013-10-22 00:14:00,37.8,28.2,30.00,West,272,6.0,9.0,68,0.00,,,0.00,Wunderground v.1.15,2013-10-22 04:14:00,
2013-10-22 00:16:00,37.8,28.2,30.01,WNW,297,6.0,9.0,68,0.00,,,0.00,Wunderground v.1.15,2013-10-22 04:16:00,
2013-10-22 00:22:00,37.6,28.0,30.00,WSW,253,6.0,6.0,68,0.00,,,0.00,Wunderground v.1.15,2013-10-22 04:22:00,
2013-10-22 00:27:00,37.4,27.8,30.01,WSW,246,5.0,7.0,68,0.00,,,0.00,Wunderground v.1.15,2013-10-22 04:27:00,
2013-10-22 00:33:00,37.4,27.8,30.01,West,264,6.0,7.0,68,0.00,,,0.00,Wunderground v.1.15,2013-10-22 04:33:00,
2013-10-22 00:39:00,37.5,27.5,30.01,WNW,290,7.0,10.0,67,0.00,,,0.00,Wunderground v.1.15,2013-10-22 04:39:00,
2013-10-22 00:44:00,37.5,27.5,30.01,West,275,7.0,7.0,67,0.00,,,0.00,Wunderground v.1.15,2013-10-22 04:44:00,
2013-10-22 00:50:00,37.1,27.5,30.00,West,273,6.0,7.0,68,0.00,,,0.00,Wunderground v.1.15,2013-10-22 04:50:00,
2013-10-22 00:55:00,36.9,27.7,30.00,WNW,287,5.0,6.0,69,0.00,,,0.00,Wunderground v.1.15,2013-10-22 04:55:00,
2013-10-22 01:01:00,36.6,27.4,30.00,West,259,4.0,6.0,69,0.00,,,0.00,Wunderground v.1.15,2013-10-22 05:01:00,
2013-10-22 01:07:00,36.5,27.3,30.01,WSW,250,4.0,8.0,69,0.00,,,0.00,Wunderground v.1.15,2013-10-22 05:07:00,
2013-10-22 01:13:00,36.3,27.1,30.01,WNW,285,4.0,5.0,69,0.00,,,0.00,Wunderground v.1.15,2013-10-22 05:13:00,
2013-10-22 01:18:00,36.3,27.1,30.01,West,276,5.0,7.0,69,0.00,,,0.00,Wunderground v.1.15,2013-10-22 05:18:00,
2013-10-22 01:24:00,36.2,27.0,30.01,WSW,253,5.0,8.0,69,0.00,,,0.00,Wunderground v.1.15,2013-10-22 05:24:00,
2013-10-22 01:30:00,36.0,27.2,30.01,WSW,238,5.0,8.0,70,0.00,,,0.00,Wunderground v.1.15,2013-10-22 05:30:00,
2013-10-22 01:35:00,35.8,27.0,30.01,West,264,4.0,8.0,70,0.00,,,0.00,Wunderground v.1.15,2013-10-22 05:35:00,
2013-10-22 01:41:00,35.6,26.8,30.01,WSW,248,5.0,7.0,70,0.00,,,0.00,Wunderground v.1.15,2013-10-22 05:41:00,
2013-10-22 01:47:00,35.4,26.9,30.01,WSW,244,5.0,7.0,71,0.00,,,0.00,Wunderground v.1.15,2013-10-22 05:47:00,
2013-10-22 01:53:00,35.1,27.3,30.02,SW,214,4.0,5.0,73,0.00,,,0.00,Wunderground v.1.15,2013-10-22 05:53:00,
2013-10-22 01:59:00,34.7,27.3,30.02,SW,226,4.0,7.0,74,0.00,,,0.00,Wunderground v.1.15,2013-10-22 05:59:00,
2013-10-22 02:05:00,34.3,27.5,30.01,SW,224,3.0,5.0,76,0.00,,,0.00,Wunderground v.1.15,2013-10-22 06:05:00,
2013-10-22 02:11:00,33.9,27.4,30.01,WSW,238,3.0,3.0,77,0.00,,,0.00,Wunderground v.1.15,2013-10-22 06:11:00,
2013-10-22 02:17:00,33.4,27.3,30.01,SW,221,3.0,5.0,78,0.00,,,0.00,Wunderground v.1.15,2013-10-22 06:17:00,
2013-10-22 02:23:00,33.0,26.9,30.01,SW,221,3.0,5.0,78,0.00,,,0.00,Wunderground v.1.15,2013-10-22 06:23:00,
2013-10-22 02:29:00,32.7,26.9,30.01,WSW,243,3.0,5.0,79,0.00,,,0.00,Wunderground v.1.15,2013-10-22 06:29:00,
2013-10-22 02:34:00,32.4,26.9,30.01,SW,226,2.0,5.0,80,0.00,,,0.00,Wunderground v.1.15,2013-10-22 06:34:00,
2013-10-22 02:40:00,32.1,26.9,30.02,SW,226,2.0,5.0,81,0.00,,,0.00,Wunderground v.1.15,2013-10-22 06:40:00,
2013-10-22 02:46:00,32.0,26.8,30.02,SSW,207,2.0,5.0,81,0.00,,,0.00,Wunderground v.1.15,2013-10-22 06:46:00,
2013-10-22 02:51:00,32.0,26.8,30.02,SSW,200,2.0,5.0,81,0.00,,,0.00,Wunderground v.1.15,2013-10-22 06:51:00,
2013-10-22 02:57:00,32.0,26.8,30.02,SW,235,3.0,5.0,81,0.00,,,0.00,Wunderground v.1.15,2013-10-22 06:57:00,
2013-10-22 03:03:00,32.1,26.9,30.02,WSW,245,3.0,5.0,81,0.00,,,0.00,Wunderground v.1.15,2013-10-22 07:03:00,
2013-10-22 03:09:00,32.0,26.8,30.02,WSW,238,3.0,5.0,81,0.00,,,0.00,Wunderground v.1.15,2013-10-22 07:09:00,
2013-10-22 03:15:00,32.0,27.1,30.02,SW,226,3.0,5.0,82,0.00,,,0.00,Wunderground v.1.15,2013-10-22 07:15:00,
2013-10-22 03:21:00,31.9,27.0,30.02,SW,226,3.0,5.0,82,0.00,,,0.00,Wunderground v.1.15,2013-10-22 07:21:00,
2013-10-22 03:27:00,31.9,27.0,30.02,SW,227,3.0,5.0,82,0.00,,,0.00,Wunderground v.1.15,2013-10-22 07:27:00,
2013-10-22 03:33:00,31.8,26.9,30.03,SW,233,3.0,5.0,82,0.00,,,0.00,Wunderground v.1.15,2013-10-22 07:33:00,
2013-10-22 03:38:00,31.7,26.8,30.02,SSW,193,3.0,5.0,82,0.00,,,0.00,Wunderground v.1.15,2013-10-22 07:38:00,
2013-10-22 03:44:00,31.6,26.7,30.03,SW,224,3.0,5.0,82,0.00,,,0.00,Wunderground v.1.15,2013-10-22 07:44:00,
2013-10-22 03:50:00,31.6,26.7,30.02,SW,217,3.0,5.0,82,0.00,,,0.00,Wunderground v.1.15,2013-10-22 07:50:00,
2013-10-22 03:56:00,31.5,26.9,30.02,SSW,212,3.0,5.0,83,0.00,,,0.00,Wunderground v.1.15,2013-10-22 07:56:00,
2013-10-22 04:01:00,31.4,26.8,30.02,SSW,203,3.0,5.0,83,0.00,,,0.00,Wunderground v.1.15,2013-10-22 08:01:00,
2013-10-22 04:07:00,31.5,26.9,30.02,SW,217,3.0,5.0,83,0.00,,,0.00,Wunderground v.1.15,2013-10-22 08:07:00,
2013-10-22 04:13:00,31.5,26.6,30.02,SW,229,4.0,5.0,82,0.00,,,0.00,Wunderground v.1.15,2013-10-22 08:13:00,
2013-10-22 04:19:00,31.4,26.5,30.02,WSW,250,3.0,6.0,82,0.00,,,0.00,Wunderground v.1.15,2013-10-22 08:19:00,
2013-10-22 04:24:00,31.3,26.4,30.02,SSW,193,3.0,5.0,82,0.00,,,0.00,Wunderground v.1.15,2013-10-22 08:24:00,
2013-10-22 04:30:00,31.2,26.3,30.02,SSW,205,3.0,5.0,82,0.00,,,0.00,Wunderground v.1.15,2013-10-22 08:30:00,
2013-10-22 04:36:00,31.1,26.2,30.02,SW,226,3.0,5.0,82,0.00,,,0.00,Wunderground v.1.15,2013-10-22 08:36:00,
2013-10-22 04:42:00,30.9,26.3,30.03,SW,216,3.0,5.0,83,0.00,,,0.00,Wunderground v.1.15,2013-10-22 08:42:00,
2013-10-22 04:48:00,30.8,26.2,30.02,SW,217,2.0,5.0,83,0.00,,,0.00,Wunderground v.1.15,2013-10-22 08:48:00,
2013-10-22 04:54:00,30.5,26.0,30.02,SW,226,2.0,5.0,83,0.00,,,0.00,Wunderground v.1.15,2013-10-22 08:54:00,
2013-10-22 05:01:00,30.3,26.0,30.03,SW,228,2.0,2.0,84,0.00,,,0.00,Wunderground v.1.15,2013-10-22 09:01:00,
2013-10-22 05:07:00,30.3,26.0,30.02,WSW,250,2.0,5.0,84,0.00,,,0.00,Wunderground v.1.15,2013-10-22 09:07:00,
2013-10-22 05:13:00,30.4,26.1,30.02,SW,230,2.0,5.0,84,0.00,,,0.00,Wunderground v.1.15,2013-10-22 09:13:00,
2013-10-22 05:19:00,30.4,26.1,30.02,SW,228,3.0,5.0,84,0.00,,,0.00,Wunderground v.1.15,2013-10-22 09:19:00,
2013-10-22 05:24:00,30.4,26.1,30.02,SSW,212,2.0,5.0,84,0.00,,,0.00,Wunderground v.1.15,2013-10-22 09:24:00,
2013-10-22 05:30:00,30.4,26.1,30.02,SW,236,2.0,5.0,84,0.00,,,0.00,Wunderground v.1.15,2013-10-22 09:30:00,
2013-10-22 05:36:00,30.4,26.1,30.03,WSW,240,3.0,5.0,84,0.00,,,0.00,Wunderground v.1.15,2013-10-22 09:36:00,
2013-10-22 05:42:00,30.4,26.1,30.03,SW,218,3.0,5.0,84,0.00,,,0.00,Wunderground v.1.15,2013-10-22 09:42:00,
2013-10-22 05:48:00,30.5,26.0,30.03,SW,224,3.0,5.0,83,0.00,,,0.00,Wunderground v.1.15,2013-10-22 09:48:00,
2013-10-22 05:54:00,30.7,26.1,30.03,WSW,246,3.0,5.0,83,0.00,,,0.00,Wunderground v.1.15,2013-10-22 09:54:00,
2013-10-22 06:01:00,30.7,26.1,30.03,West,260,3.0,5.0,83,0.00,,,0.00,Wunderground v.1.15,2013-10-22 10:01:00,
2013-10-22 06:07:00,30.5,26.0,30.03,SSW,204,3.0,5.0,83,0.00,,,0.00,Wunderground v.1.15,2013-10-22 10:07:00,
2013-10-22 06:12:00,30.1,25.6,30.03,South,188,2.0,5.0,83,0.00,,,0.00,Wunderground v.1.15,2013-10-22 10:12:00,
2013-10-22 06:18:00,29.9,25.7,30.03,SW,226,3.0,5.0,84,0.00,,,0.00,Wunderground v.1.15,2013-10-22 10:18:00,
2013-10-22 06:24:00,29.8,25.6,30.03,WSW,244,2.0,5.0,84,0.00,,,0.00,Wunderground v.1.15,2013-10-22 10:24:00,
2013-10-22 06:30:00,29.9,25.7,30.03,SW,222,2.0,5.0,84,0.00,,,0.00,Wunderground v.1.15,2013-10-22 10:30:00,
2013-10-22 06:36:00,30.0,25.5,30.04,SSW,200,3.0,5.0,83,0.00,,,0.00,Wunderground v.1.15,2013-10-22 10:36:00,
2013-10-22 06:42:00,30.1,25.6,30.04,SSW,205,3.0,5.0,83,0.00,,,0.00,Wunderground v.1.15,2013-10-22 10:42:00,
2013-10-22 06:48:00,30.2,25.7,30.04,SW,229,4.0,6.0,83,0.00,,,0.00,Wunderground v.1.15,2013-10-22 10:48:00,
2013-10-22 06:54:00,30.3,25.8,30.04,SW,225,4.0,5.0,83,0.00,,,0.00,Wunderground v.1.15,2013-10-22 10:54:00,
2013-10-22 06:59:00,30.4,25.6,30.04,SW,229,4.0,5.0,82,0.00,,,0.00,Wunderground v.1.15,2013-10-22 10:59:00,
2013-10-22 07:05:00,30.4,25.6,30.04,SW,217,4.0,6.0,82,0.00,,,0.00,Wunderground v.1.15,2013-10-22 11:05:00,
2013-10-22 07:11:00,30.3,25.5,30.04,SSW,210,4.0,4.0,82,0.00,,,0.00,Wunderground v.1.15,2013-10-22 11:11:00,
2013-10-22 07:17:00,30.1,25.6,30.04,South,188,3.0,5.0,83,0.00,,,0.00,Wunderground v.1.15,2013-10-22 11:17:00,
2013-10-22 07:23:00,29.9,25.4,30.04,South,191,3.0,5.0,83,0.00,,,0.00,Wunderground v.1.15,2013-10-22 11:23:00,
2013-10-22 07:28:00,29.8,25.3,30.05,SSW,194,3.0,5.0,83,0.00,,,0.00,Wunderground v.1.15,2013-10-22 11:28:00,
2013-10-22 07:34:00,29.7,25.5,30.04,WSW,240,3.0,5.0,84,0.00,,,0.00,Wunderground v.1.15,2013-10-22 11:34:00,
2013-10-22 07:40:00,29.5,25.3,30.04,South,181,3.0,5.0,84,0.00,,,0.00,Wunderground v.1.15,2013-10-22 11:40:00,
2013-10-22 07:46:00,29.3,25.1,30.05,SSW,203,3.0,5.0,84,0.00,,,0.00,Wunderground v.1.15,2013-10-22 11:46:00,
2013-10-22 07:52:00,29.0,25.1,30.04,SSW,207,3.0,5.0,85,0.00,,,0.00,Wunderground v.1.15,2013-10-22 11:52:00,
2013-10-22 07:58:00,28.8,25.1,30.05,South,191,2.0,5.0,86,0.00,,,0.00,Wunderground v.1.15,2013-10-22 11:58:00,
2013-10-22 08:04:00,28.7,25.0,30.05,SW,232,2.0,5.0,86,0.00,,,0.00,Wunderground v.1.15,2013-10-22 12:04:00,
2013-10-22 08:09:00,28.7,25.0,30.05,SSW,212,2.0,5.0,86,0.00,,,0.00,Wunderground v.1.15,2013-10-22 12:09:00,
2013-10-22 08:15:00,28.8,25.1,30.05,SW,218,3.0,5.0,86,0.00,,,0.00,Wunderground v.1.15,2013-10-22 12:15:00,
2013-10-22 08:21:00,28.9,25.2,30.05,SW,231,2.0,5.0,86,0.00,,,0.00,Wunderground v.1.15,2013-10-22 12:21:00,
2013-10-22 08:27:00,29.3,25.6,30.05,SW,222,2.0,5.0,86,0.00,,,0.00,Wunderground v.1.15,2013-10-22 12:27:00,
2013-10-22 08:33:00,29.8,25.8,30.05,South,191,2.0,5.0,85,0.00,,,0.00,Wunderground v.1.15,2013-10-22 12:33:00,
2013-10-22 08:39:00,30.3,26.0,30.05,SSW,213,2.0,5.0,84,0.00,,,0.00,Wunderground v.1.15,2013-10-22 12:39:00,
2013-10-22 08:45:00,30.6,26.3,30.05,SSE,160,2.0,5.0,84,0.00,,,0.00,Wunderground v.1.15,2013-10-22 12:45:00,
2013-10-22 08:51:00,31.0,26.7,30.05,SW,217,2.0,2.0,84,0.00,,,0.00,Wunderground v.1.15,2013-10-22 12:51:00,
2013-10-22 08:57:00,31.4,26.8,30.05,SW,234,2.0,5.0,83,0.00,,,0.00,Wunderground v.1.15,2013-10-22 12:57:00,
2013-10-22 09:03:00,32.0,27.1,30.05,SSW,207,2.0,5.0,82,0.00,,,0.00,Wunderground v.1.15,2013-10-22 13:03:00,
2013-10-22 09:09:00,32.4,27.2,30.05,SW,219,3.0,5.0,81,0.00,,,0.00,Wunderground v.1.15,2013-10-22 13:09:00,
2013-10-22 09:14:00,32.7,27.2,30.05,WSW,250,4.0,5.0,80,0.00,,,0.00,Wunderground v.1.15,2013-10-22 13:14:00,
2013-10-22 09:20:00,33.2,27.4,30.06,SW,214,4.0,5.0,79,0.00,,,0.00,Wunderground v.1.15,2013-10-22 13:20:00,
2013-10-22 09:26:00,33.8,27.4,30.06,SW,224,5.0,7.0,77,0.00,,,0.00,Wunderground v.1.15,2013-10-22 13:26:00,
2013-10-22 09:32:00,34.2,27.4,30.06,SW,221,6.0,10.0,76,0.00,,,0.00,Wunderground v.1.15,2013-10-22 13:32:00,
2013-10-22 09:38:00,34.8,27.7,30.06,SW,229,6.0,10.0,75,0.00,,,0.00,Wunderground v.1.15,2013-10-22 13:38:00,
2013-10-22 09:44:00,35.3,28.2,30.06,SW,231,5.0,8.0,75,0.00,,,0.00,Wunderground v.1.15,2013-10-22 13:44:00,
2013-10-22 09:50:00,35.8,28.0,30.06,NW,307,5.0,8.0,73,0.00,,,0.00,Wunderground v.1.15,2013-10-22 13:50:00,
2013-10-22 09:56:00,36.2,28.4,30.06,SW,229,5.0,6.0,73,0.00,,,0.00,Wunderground v.1.15,2013-10-22 13:56:00,
2013-10-22 10:02:00,36.5,28.3,30.06,West,259,6.0,9.0,72,0.00,,,0.00,Wunderground v.1.15,2013-10-22 14:02:00,
2013-10-22 10:07:00,36.8,28.6,30.06,SW,217,6.0,9.0,72,0.00,,,0.00,Wunderground v.1.15,2013-10-22 14:07:00,
2013-10-22 10:13:00,37.4,28.9,30.06,SW,231,6.0,7.0,71,0.00,,,0.00,Wunderground v.1.15,2013-10-22 14:13:00,
2013-10-22 10:19:00,38.0,29.1,30.06,WSW,248,6.0,8.0,70,0.00,,,0.00,Wunderground v.1.15,2013-10-22 14:19:00,
2013-10-22 10:25:00,38.2,28.9,30.05,SW,229,6.0,8.0,69,0.00,,,0.00,Wunderground v.1.15,2013-10-22 14:25:00,
2013-10-22 10:31:00,38.7,29.0,30.05,SSW,212,6.0,6.0,68,0.00,,,0.00,Wunderground v.1.15,2013-10-22 14:31:00,
2013-10-22 10:37:00,39.2,29.5,30.05,SW,227,5.0,6.0,68,0.00,,,0.00,Wunderground v.1.15,2013-10-22 14:37:00,
2013-10-22 10:43:00,39.8,29.4,30.05,SW,217,5.0,8.0,66,0.00,,,0.00,Wunderground v.1.15,2013-10-22 14:43:00,
2013-10-22 10:49:00,40.1,29.6,30.05,South,190,5.0,8.0,66,0.00,,,0.00,Wunderground v.1.15,2013-10-22 14:49:00,
2013-10-22 10:55:00,40.4,29.6,30.05,West,277,4.0,8.0,65,0.00,,,0.00,Wunderground v.1.15,2013-10-22 14:55:00,
2013-10-22 11:01:00,40.5,28.9,30.05,WNW,297,5.0,5.0,63,0.00,,,0.00,Wunderground v.1.15,2013-10-22 15:01:00,
2013-10-22 11:07:00,40.7,29.5,30.05,WSW,247,5.0,8.0,64,0.00,,,0.00,Wunderground v.1.15,2013-10-22 15:07:00,
2013-10-22 11:12:00,40.9,29.3,30.05,SW,233,6.0,7.0,63,0.00,,,0.00,Wunderground v.1.15,2013-10-22 15:12:00,
2013-10-22 11:18:00,41.3,29.6,30.05,SW,226,5.0,8.0,63,0.00,,,0.00,Wunderground v.1.15,2013-10-22 15:18:00,
2013-10-22 11:23:00,42.1,30.0,30.05,WSW,254,5.0,7.0,62,0.00,,,0.00,Wunderground v.1.15,2013-10-22 15:23:00,
2013-10-22 11:29:00,42.6,29.7,30.05,WSW,240,5.0,8.0,60,0.00,,,0.00,Wunderground v.1.15,2013-10-22 15:29:00,
2013-10-22 11:35:00,42.8,29.5,30.05,WSW,243,6.0,7.0,59,0.00,,,0.00,Wunderground v.1.15,2013-10-22 15:35:00,
2013-10-22 11:41:00,43.2,29.0,30.04,WNW,298,6.0,6.0,57,0.00,,,0.00,Wunderground v.1.15,2013-10-22 15:41:00,
2013-10-22 11:47:00,43.6,28.9,30.04,WSW,245,6.0,8.0,56,0.00,,,0.00,Wunderground v.1.15,2013-10-22 15:47:00,
2013-10-22 11:53:00,43.7,28.6,30.04,SW,228,7.0,8.0,55,0.00,,,0.00,Wunderground v.1.15,2013-10-22 15:53:00,
2013-10-22 11:59:00,43.9,28.8,30.03,SW,236,6.0,10.0,55,0.00,,,0.00,Wunderground v.1.15,2013-10-22 15:59:00,
2013-10-22 12:04:00,44.2,28.6,30.03,SSE,165,7.0,7.0,54,0.00,,,0.00,Wunderground v.1.15,2013-10-22 16:04:00,
2013-10-22 12:10:00,44.5,28.9,30.03,SW,226,7.0,9.0,54,0.00,,,0.00,Wunderground v.1.15,2013-10-22 16:10:00,
2013-10-22 12:16:00,44.7,27.7,30.02,West,270,5.0,11.0,51,0.00,,,0.00,Wunderground v.1.15,2013-10-22 16:16:00,
2013-10-22 12:21:00,44.7,26.7,30.02,SW,230,6.0,7.0,49,0.00,,,0.00,Wunderground v.1.15,2013-10-22 16:21:00,
2013-10-22 12:27:00,44.9,26.9,30.02,WSW,250,6.0,10.0,49,0.00,,,0.00,Wunderground v.1.15,2013-10-22 16:27:00,
2013-10-22 12:33:00,45.2,26.7,30.02,WSW,245,7.0,10.0,48,0.00,,,0.00,Wunderground v.1.15,2013-10-22 16:33:00,
2013-10-22 12:38:00,45.5,26.9,30.02,NW,304,6.0,10.0,48,0.00,,,0.00,Wunderground v.1.15,2013-10-22 16:38:00,
2013-10-22 12:44:00,45.5,26.9,30.02,SW,229,6.0,7.0,48,0.00,,,0.00,Wunderground v.1.15,2013-10-22 16:44:00,
2013-10-22 12:49:00,45.7,26.6,30.02,WNW,285,7.0,9.0,47,0.00,,,0.00,Wunderground v.1.15,2013-10-22 16:49:00,
2013-10-22 12:55:00,45.5,26.4,30.01,NW,307,7.0,8.0,47,0.00,,,0.00,Wunderground v.1.15,2013-10-22 16:55:00,
2013-10-22 13:01:00,45.3,26.7,30.01,West,271,5.0,5.0,48,0.00,,,0.00,Wunderground v.1.15,2013-10-22 17:01:00,
2013-10-22 13:07:00,45.6,27.5,30.01,SW,236,5.0,7.0,49,0.00,,,0.00,Wunderground v.1.15,2013-10-22 17:07:00,
2013-10-22 13:13:00,46.0,28.4,30.01,North,352,5.0,6.0,50,0.00,,,0.00,Wunderground v.1.15,2013-10-22 17:13:00,
2013-10-22 13:18:00,45.9,27.8,30.00,WSW,240,5.0,9.0,49,0.00,,,0.00,Wunderground v.1.15,2013-10-22 17:18:00,
2013-10-22 13:24:00,45.9,27.8,30.00,West,281,6.0,8.0,49,0.00,,,0.00,Wunderground v.1.15,2013-10-22 17:24:00,
2013-10-22 13:30:00,46.1,28.0,30.00,SW,228,7.0,9.0,49,0.00,,,0.00,Wunderground v.1.15,2013-10-22 17:30:00,
2013-10-22 13:35:00,46.5,27.8,30.00,WSW,252,6.0,7.0,48,0.00,,,0.00,Wunderground v.1.15,2013-10-22 17:35:00,
2013-10-22 13:41:00,46.9,28.2,29.99,NW,321,6.0,7.0,48,0.00,,,0.00,Wunderground v.1.15,2013-10-22 17:41:00,
2013-10-22 13:47:00,46.7,28.0,29.99,West,271,6.0,11.0,48,0.00,,,0.00,Wunderground v.1.15,2013-10-22 17:47:00,
2013-10-22 13:53:00,47.0,28.3,29.99,WNW,300,5.0,9.0,48,0.00,,,0.00,Wunderground v.1.15,2013-10-22 17:53:00,
2013-10-22 13:59:00,47.3,28.6,29.98,NNW,330,5.0,9.0,48,0.00,,,0.00,Wunderground v.1.15,2013-10-22 17:59:00,
2013-10-22 14:05:00,47.2,28.5,29.98,WSW,253,6.0,10.0,48,0.00,,,0.00,Wunderground v.1.15,2013-10-22 18:05:00,
2013-10-22 14:11:00,47.1,28.9,29.98,West,259,5.0,5.0,49,0.00,,,0.00,Wunderground v.1.15,2013-10-22 18:11:00,
2013-10-22 14:16:00,47.0,28.8,29.97,WNW,287,4.0,5.0,49,0.00,,,0.00,Wunderground v.1.15,2013-10-22 18:16:00,
2013-10-22 14:22:00,47.1,28.9,29.98,WSW,246,4.0,6.0,49,0.00,,,0.00,Wunderground v.1.15,2013-10-22 18:22:00,
2013-10-22 14:27:00,47.1,28.9,29.97,NW,315,4.0,6.0,49,0.00,,,0.00,Wunderground v.1.15,2013-10-22 18:27:00,
2013-10-22 14:33:00,47.0,28.8,29.97,West,274,4.0,7.0,49,0.00,,,0.00,Wunderground v.1.15,2013-10-22 18:33:00,
2013-10-22 14:39:00,46.6,28.4,29.97,WNW,297,5.0,7.0,49,0.00,,,0.00,Wunderground v.1.15,2013-10-22 18:39:00,
2013-10-22 14:45:00,46.4,29.2,29.97,NW,310,4.0,5.0,51,0.00,,,0.00,Wunderground v.1.15,2013-10-22 18:45:00,
2013-10-22 14:51:00,46.3,29.1,29.97,WSW,250,5.0,5.0,51,0.00,,,0.00,Wunderground v.1.15,2013-10-22 18:51:00,
2013-10-22 14:57:00,46.5,29.8,29.96,WNW,297,4.0,6.0,52,0.00,,,0.00,Wunderground v.1.15,2013-10-22 18:57:00,
2013-10-22 15:02:00,46.6,29.4,29.97,West,275,3.0,6.0,51,0.00,,,0.00,Wunderground v.1.15,2013-10-22 19:02:00,
2013-10-22 15:08:00,46.7,29.5,29.97,NW,304,3.0,7.0,51,0.00,,,0.00,Wunderground v.1.15,2013-10-22 19:08:00,
2013-10-22 15:14:00,46.7,29.5,29.97,West,264,4.0,5.0,51,0.00,,,0.00,Wunderground v.1.15,2013-10-22 19:14:00,
2013-10-22 15:20:00,45.7,28.1,29.97,North,354,5.0,8.0,50,0.00,,,0.00,Wunderground v.1.15,2013-10-22 19:20:00,
2013-10-22 15:26:00,45.5,29.3,29.97,NNW,327,4.0,11.0,53,0.00,,,0.00,Wunderground v.1.15,2013-10-22 19:26:00,
2013-10-22 15:32:00,45.0,30.2,29.97,WSW,244,5.0,6.0,56,0.00,,,0.00,Wunderground v.1.15,2013-10-22 19:32:00,
2013-10-22 15:38:00,44.5,30.6,29.97,WSW,240,4.0,6.0,58,0.00,,,0.00,Wunderground v.1.15,2013-10-22 19:38:00,
2013-10-22 15:44:00,44.1,30.7,29.97,West,281,5.0,8.0,59,0.00,,,0.00,Wunderground v.1.15,2013-10-22 19:44:00,
2013-10-22 15:49:00,43.6,31.4,29.97,NNW,327,5.0,8.0,62,0.00,,,0.00,Wunderground v.1.15,2013-10-22 19:49:00,
2013-10-22 15:55:00,42.9,31.6,29.97,WNW,298,4.0,6.0,64,0.00,,,0.00,Wunderground v.1.15,2013-10-22 19:55:00,
2013-10-22 16:01:00,42.4,32.2,29.97,WSW,238,4.0,4.0,67,0.00,,,0.00,Wunderground v.1.15,2013-10-22 20:01:00,
2013-10-22 16:07:00,41.7,32.3,29.97,North,354,3.0,5.0,69,0.00,,,0.00,Wunderground v.1.15,2013-10-22 20:07:00,
2013-10-22 16:13:00,41.4,32.7,29.97,SSW,204,2.0,5.0,71,0.00,,,0.00,Wunderground v.1.15,2013-10-22 20:13:00,
2013-10-22 16:19:00,41.1,33.8,29.98,WSW,245,1.0,5.0,75,0.00,,,0.00,Wunderground v.1.15,2013-10-22 20:19:00,
2013-10-22 16:25:00,40.7,34.4,29.98,SSW,194,2.0,5.0,78,0.00,,,0.01,Wunderground v.1.15,2013-10-22 20:25:00,
2013-10-22 16:31:00,40.4,34.1,29.98,WSW,256,2.0,5.0,78,0.00,,,0.01,Wunderground v.1.15,2013-10-22 20:31:00,
2013-10-22 16:37:00,40.2,34.5,29.98,NW,315,1.0,5.0,80,0.00,,,0.01,Wunderground v.1.15,2013-10-22 20:37:00,
2013-10-22 16:43:00,39.6,34.6,29.98,SW,236,3.0,5.0,82,0.00,,,0.02,Wunderground v.1.15,2013-10-22 20:43:00,
2013-10-22 16:48:00,39.3,34.6,29.98,WNW,293,3.0,5.0,83,0.00,,,0.02,Wunderground v.1.15,2013-10-22 20:48:00,
2013-10-22 16:53:00,39.1,34.7,29.98,WNW,289,2.0,5.0,84,0.05,,,0.03,Wunderground v.1.15,2013-10-22 20:53:00,
2013-10-22 16:59:00,38.8,34.7,29.98,North,359,3.0,5.0,85,0.05,,,0.03,Wunderground v.1.15,2013-10-22 20:59:00,
2013-10-22 17:05:00,38.7,34.9,29.98,NNW,332,3.0,5.0,86,0.05,,,0.04,Wunderground v.1.15,2013-10-22 21:05:00,
2013-10-22 17:11:00,38.5,35.3,29.98,North,354,3.0,5.0,88,0.05,,,0.04,Wunderground v.1.15,2013-10-22 21:11:00,
2013-10-22 17:17:00,38.5,35.3,29.98,NNW,333,3.0,5.0,88,0.05,,,0.05,Wunderground v.1.15,2013-10-22 21:17:00,
2013-10-22 17:23:00,38.3,35.1,29.98,North,352,3.0,6.0,88,0.05,,,0.05,Wunderground v.1.15,2013-10-22 21:23:00,
2013-10-22 17:29:00,38.0,34.8,29.98,North,10,4.0,7.0,88,0.05,,,0.05,Wunderground v.1.15,2013-10-22 21:29:00,
2013-10-22 17:34:00,37.7,34.2,29.98,NNW,340,5.0,6.0,87,0.00,,,0.05,Wunderground v.1.15,2013-10-22 21:34:00,
2013-10-22 17:40:00,37.5,34.3,29.98,NW,318,5.0,6.0,88,0.00,,,0.05,Wunderground v.1.15,2013-10-22 21:40:00,
2013-10-22 17:46:00,37.4,34.5,29.98,NNW,342,4.0,5.0,89,0.00,,,0.06,Wunderground v.1.15,2013-10-22 21:46:00,
2013-10-22 17:52:00,37.4,34.5,29.97,NNE,15,3.0,5.0,89,0.00,,,0.06,Wunderground v.1.15,2013-10-22 21:52:00,
2013-10-22 17:58:00,37.4,34.7,29.97,NNW,344,2.0,5.0,90,0.00,,,0.06,Wunderground v.1.15,2013-10-22 21:58:00,
2013-10-22 18:04:00,37.3,34.6,29.97,NNW,347,3.0,5.0,90,0.00,,,0.06,Wunderground v.1.15,2013-10-22 22:04:00,
2013-10-22 18:10:00,37.4,35.0,29.97,NNE,15,3.0,6.0,91,0.00,,,0.06,Wunderground v.1.15,2013-10-22 22:10:00,
2013-10-22 18:15:00,37.2,34.5,29.97,North,10,4.0,6.0,90,0.00,,,0.06,Wunderground v.1.15,2013-10-22 22:15:00,
2013-10-22 18:21:00,37.2,34.8,29.97,NNE,19,4.0,5.0,91,0.00,,,0.06,Wunderground v.1.15,2013-10-22 22:21:00,
2013-10-22 18:27:00,37.2,34.8,29.97,NNE,30,4.0,6.0,91,0.00,,,0.06,Wunderground v.1.15,2013-10-22 22:27:00,
2013-10-22 18:32:00,37.1,34.7,29.96,NNE,27,5.0,5.0,91,0.00,,,0.06,Wunderground v.1.15,2013-10-22 22:32:00,
2013-10-22 18:38:00,37.0,34.6,29.96,NE,38,5.0,6.0,91,0.00,,,0.06,Wunderground v.1.15,2013-10-22 22:38:00,
2013-10-22 18:43:00,36.9,34.8,29.96,NNE,16,4.0,6.0,92,0.00,,,0.06,Wunderground v.1.15,2013-10-22 22:43:00,
2013-10-22 18:49:00,36.9,34.8,29.96,NNW,332,4.0,6.0,92,0.00,,,0.06,Wunderground v.1.15,2013-10-22 22:49:00,
2013-10-22 18:55:00,36.8,34.7,29.96,NNW,335,5.0,5.0,92,0.00,,,0.06,Wunderground v.1.15,2013-10-22 22:55:00,
2013-10-22 19:01:00,36.8,34.7,29.96,NNE,32,5.0,5.0,92,0.00,,,0.06,Wunderground v.1.15,2013-10-22 23:01:00,
2013-10-22 19:07:00,36.7,34.6,29.96,North,360,5.0,7.0,92,0.00,,,0.06,Wunderground v.1.15,2013-10-22 23:07:00,
2013-10-22 19:13:00,36.5,34.7,29.96,NNE,20,5.0,5.0,93,0.00,,,0.06,Wunderground v.1.15,2013-10-22 23:13:00,
2013-10-22 19:19:00,36.4,34.6,29.96,NNE,29,4.0,6.0,93,0.00,,,0.06,Wunderground v.1.15,2013-10-22 23:19:00,
2013-10-22 19:24:00,36.4,34.6,29.97,North,359,4.0,5.0,93,0.00,,,0.06,Wunderground v.1.15,2013-10-22 23:24:00,
2013-10-22 19:30:00,36.4,34.6,29.97,NNE,19,4.0,5.0,93,0.00,,,0.06,Wunderground v.1.15,2013-10-22 23:30:00,
2013-10-22 19:36:00,36.4,34.6,29.97,NNW,342,3.0,5.0,93,0.00,,,0.06,Wunderground v.1.15,2013-10-22 23:36:00,
2013-10-22 19:42:00,36.4,34.6,29.97,NNE,20,4.0,5.0,93,0.00,,,0.06,Wunderground v.1.15,2013-10-22 23:42:00,
2013-10-22 19:48:00,36.4,34.6,29.97,NNW,337,4.0,5.0,93,0.00,,,0.06,Wunderground v.1.15,2013-10-22 23:48:00,
2013-10-22 19:54:00,36.2,34.4,29.97,North,354,5.0,6.0,93,0.00,,,0.06,Wunderground v.1.15,2013-10-22 23:54:00,
2013-10-22 20:01:00,36.3,34.5,29.97,NE,44,5.0,5.0,93,0.00,,,0.06,Wunderground v.1.15,2013-10-23 00:01:00,
2013-10-22 20:07:00,36.2,34.4,29.96,North,4,4.0,6.0,93,0.00,,,0.06,Wunderground v.1.15,2013-10-23 00:07:00,
2013-10-22 20:13:00,36.1,34.3,29.96,NNE,16,5.0,6.0,93,0.00,,,0.07,Wunderground v.1.15,2013-10-23 00:13:00,
2013-10-22 20:19:00,36.1,34.3,29.96,NNE,16,6.0,7.0,93,0.00,,,0.07,Wunderground v.1.15,2013-10-23 00:19:00,
2013-10-22 20:24:00,36.0,34.2,29.96,NNE,28,5.0,6.0,93,0.00,,,0.07,Wunderground v.1.15,2013-10-23 00:24:00,
2013-10-22 20:30:00,36.0,34.2,29.96,NNE,19,4.0,7.0,93,0.00,,,0.07,Wunderground v.1.15,2013-10-23 00:30:00,
2013-10-22 20:36:00,36.0,34.2,29.96,NE,40,5.0,6.0,93,0.00,,,0.07,Wunderground v.1.15,2013-10-23 00:36:00,
2013-10-22 20:42:00,35.9,34.1,29.96,NNE,33,5.0,5.0,93,0.00,,,0.07,Wunderground v.1.15,2013-10-23 00:42:00,
2013-10-22 20:47:00,36.0,34.4,29.96,NE,49,3.0,5.0,94,0.00,,,0.07,Wunderground v.1.15,2013-10-23 00:47:00,
2013-10-22 20:52:00,35.9,34.3,29.96,NE,34,3.0,6.0,94,0.00,,,0.07,Wunderground v.1.15,2013-10-23 00:52:00,
2013-10-22 20:58:00,35.9,34.3,29.96,NNE,32,4.0,6.0,94,0.00,,,0.07,Wunderground v.1.15,2013-10-23 00:58:00,
2013-10-22 21:04:00,35.9,34.3,29.96,North,350,3.0,5.0,94,0.00,,,0.07,Wunderground v.1.15,2013-10-23 01:04:00,
2013-10-22 21:10:00,35.9,34.3,29.96,NE,53,3.0,5.0,94,0.00,,,0.07,Wunderground v.1.15,2013-10-23 01:10:00,
2013-10-22 21:16:00,35.9,34.3,29.96,NNE,28,3.0,5.0,94,0.00,,,0.07,Wunderground v.1.15,2013-10-23 01:16:00,
2013-10-22 21:22:00,35.9,34.3,29.95,North,358,2.0,5.0,94,0.00,,,0.07,Wunderground v.1.15,2013-10-23 01:22:00,
2013-10-22 21:28:00,35.8,34.2,29.95,NE,55,3.0,5.0,94,0.00,,,0.07,Wunderground v.1.15,2013-10-23 01:28:00,
2013-10-22 21:34:00,35.6,34.0,29.95,NE,42,4.0,5.0,94,0.00,,,0.07,Wunderground v.1.15,2013-10-23 01:34:00,
2013-10-22 21:40:00,35.6,34.0,29.96,NE,47,4.0,6.0,94,0.00,,,0.07,Wunderground v.1.15,2013-10-23 01:40:00,
2013-10-22 21:46:00,35.6,34.0,29.96,NE,48,4.0,6.0,94,0.00,,,0.08,Wunderground v.1.15,2013-10-23 01:46:00,
2013-10-22 21:52:00,35.5,33.9,29.96,NE,37,4.0,5.0,94,0.00,,,0.08,Wunderground v.1.15,2013-10-23 01:52:00,
2013-10-22 21:58:00,35.5,33.9,29.96,North,8,4.0,6.0,94,0.00,,,0.08,Wunderground v.1.15,2013-10-23 01:58:00,
2013-10-22 22:03:00,35.4,33.8,29.96,North,352,4.0,5.0,94,0.00,,,0.08,Wunderground v.1.15,2013-10-23 02:03:00,
2013-10-22 22:09:00,35.3,33.7,29.96,North,6,3.0,5.0,94,0.00,,,0.09,Wunderground v.1.15,2013-10-23 02:09:00,
2013-10-22 22:15:00,35.3,33.7,29.96,North,9,4.0,5.0,94,0.00,,,0.09,Wunderground v.1.15,2013-10-23 02:15:00,
2013-10-22 22:21:00,35.3,33.7,29.96,North,354,4.0,7.0,94,0.00,,,0.09,Wunderground v.1.15,2013-10-23 02:21:00,
2013-10-22 22:27:00,35.1,33.5,29.96,NNE,14,5.0,7.0,94,0.00,,,0.09,Wunderground v.1.15,2013-10-23 02:27:00,
2013-10-22 22:33:00,35.1,33.5,29.96,NNW,338,5.0,5.0,94,0.00,,,0.10,Wunderground v.1.15,2013-10-23 02:33:00,
2013-10-22 22:39:00,35.1,33.5,29.96,NE,43,4.0,6.0,94,0.00,,,0.10,Wunderground v.1.15,2013-10-23 02:39:00,
2013-10-22 22:45:00,34.9,33.3,29.96,NE,53,4.0,8.0,94,0.00,,,0.10,Wunderground v.1.15,2013-10-23 02:45:00,
2013-10-22 22:51:00,34.7,33.2,29.95,NE,43,5.0,8.0,94,0.00,,,0.11,Wunderground v.1.15,2013-10-23 02:51:00,
2013-10-22 22:57:00,34.6,33.1,29.95,NNW,345,5.0,8.0,94,0.00,,,0.11,Wunderground v.1.15,2013-10-23 02:57:00,
2013-10-22 23:02:00,34.5,33.0,29.95,NNE,26,4.0,5.0,94,0.00,,,0.11,Wunderground v.1.15,2013-10-23 03:02:00,
2013-10-22 23:08:00,34.6,33.3,29.95,NE,53,3.0,5.0,95,0.00,,,0.11,Wunderground v.1.15,2013-10-23 03:08:00,
2013-10-22 23:14:00,34.6,33.3,29.95,East,82,2.0,5.0,95,0.00,,,0.12,Wunderground v.1.15,2013-10-23 03:14:00,
2013-10-22 23:20:00,34.5,33.2,29.94,NNE,16,2.0,5.0,95,0.00,,,0.12,Wunderground v.1.15,2013-10-23 03:20:00,
2013-10-22 23:26:00,34.3,33.0,29.94,North,357,2.0,5.0,95,0.07,,,0.13,Wunderground v.1.15,2013-10-23 03:26:00,
2013-10-22 23:31:00,34.1,32.8,29.94,NNE,30,3.0,3.0,95,0.06,,,0.13,Wunderground v.1.15,2013-10-23 03:31:00,
2013-10-22 23:37:00,34.0,32.7,29.94,NE,40,5.0,7.0,95,0.04,,,0.13,Wunderground v.1.15,2013-10-23 03:37:00,
2013-10-22 23:42:00,34.0,32.7,29.94,NE,47,5.0,5.0,95,0.00,,,0.13,Wunderground v.1.15,2013-10-23 03:42:00,
2013-10-22 23:47:00,34.0,32.7,29.93,North,4,4.0,5.0,95,0.00,,,0.13,Wunderground v.1.15,2013-10-23 03:47:00,
2013-10-22 23:53:00,34.0,32.7,29.94,NNE,19,4.0,5.0,95,0.00,,,0.13,Wunderground v.1.15,2013-10-23 03:53:00,
2013-10-22 23:59:00,34.0,32.7,29.93,NE,49,4.0,6.0,95,0.00,,,0.13,Wunderground v.1.15,2013-10-23 03:59:00,